TimeCDT,TemperatureF,Dew PointF,Humidity,Sea Level PressureIn,VisibilityMPH,Wind Direction,Wind SpeedMPH,Gust SpeedMPH,PrecipitationIn,Events,Conditions,WindDirDegrees,DateUTC
12:53 AM,66.0,57.9,75,30.11,10.0,East,6.9,-,N/A,,Clear,100,2013-05-28 05:53:00
1:53 AM,68.0,57.0,68,30.11,10.0,Calm,Calm,-,N/A,,Clear,0,2013-05-28 06:53:00
2:53 AM,66.0,55.9,70,30.10,10.0,Calm,Calm,-,N/A,,Clear,0,2013-05-28 07:53:00
3:53 AM,64.0,57.0,78,30.10,10.0,East,3.5,-,N/A,,Clear,90,2013-05-28 08:53:00
4:53 AM,63.0,57.0,81,30.12,10.0,East,3.5,-,N/A,,Clear,80,2013-05-28 09:53:00
5:53 AM,62.1,57.0,84,30.13,10.0,East,3.5,-,N/A,,Clear,90,2013-05-28 10:53:00
6:53 AM,66.9,59.0,76,30.14,10.0,Calm,Calm,-,N/A,,Clear,0,2013-05-28 11:53:00
7:53 AM,72.0,61.0,68,30.14,10.0,East,4.6,-,N/A,,Clear,90,2013-05-28 12:53:00
8:53 AM,77.0,63.0,62,30.14,10.0,SSE,5.8,-,N/A,,Clear,150,2013-05-28 13:53:00
9:53 AM,81.0,64.9,58,30.13,10.0,ESE,8.1,-,N/A,,Clear,110,2013-05-28 14:53:00
10:53 AM,84.9,64.0,49,30.14,10.0,Variable,6.9,-,N/A,,Clear,0,2013-05-28 15:53:00
11:53 AM,88.0,64.9,46,30.13,10.0,ESE,9.2,-,N/A,,Partly Cloudy,120,2013-05-28 16:53:00
12:53 PM,88.0,63.0,43,30.11,10.0,SE,8.1,-,N/A,,Partly Cloudy,140,2013-05-28 17:53:00
1:53 PM,88.0,62.1,42,30.08,10.0,SSE,10.4,-,N/A,,Scattered Clouds,160,2013-05-28 18:53:00
2:53 PM,89.1,61.0,39,30.07,10.0,South,6.9,-,N/A,,Scattered Clouds,170,2013-05-28 19:53:00
3:53 PM,87.1,60.1,40,30.06,10.0,ESE,6.9,-,N/A,,Scattered Clouds,110,2013-05-28 20:53:00
4:53 PM,89.1,62.1,40,30.05,10.0,SE,9.2,-,N/A,,Scattered Clouds,130,2013-05-28 21:53:00
5:53 PM,89.1,61.0,39,30.04,10.0,ESE,9.2,-,N/A,,Scattered Clouds,110,2013-05-28 22:53:00
6:53 PM,86.0,63.0,46,30.04,10.0,East,5.8,-,N/A,,Clear,100,2013-05-28 23:53:00
7:53 PM,81.0,62.1,52,30.05,10.0,East,5.8,-,N/A,,Mostly Cloudy,100,2013-05-29 00:53:00
8:53 PM,81.0,62.1,52,30.06,10.0,ESE,5.8,-,N/A,,Overcast,110,2013-05-29 01:53:00
9:53 PM,78.1,62.1,58,30.08,10.0,ESE,5.8,-,N/A,,Mostly Cloudy,110,2013-05-29 02:53:00
10:53 PM,78.1,57.0,48,30.09,10.0,SE,8.1,-,N/A,,Clear,140,2013-05-29 03:53:00
11:53 PM,77.0,60.1,56,30.10,10.0,South,6.9,-,N/A,,Clear,170,2013-05-29 04:53:00